User: anonymous   Login
Location: Владивосток
(43.1151°N, 131.8856°E)
Time: 22:58:06
(UTC+10:00)
Language:

COSMOS 2251 DEB - Orbit

View from above orbital plane
View from above orbital plane
View from above satellite
View from above satellite

Ground track
Ground track

The orbit data is extracted from the following two-line orbital elements,

1 36048U 93036AXK 24192.73339095  .00001066  00000-0  37240-3 0  9991
2 36048  74.0556 174.5892 0027237 354.3680 180.2635 14.36261305780311
Epoch (UTC): 10 July 2024 17:36:04
Eccentricity: 0.0027237
inclination: 74.0556°
perigee height: 751 km
apogee height: 790 km
right ascension of ascending node: 174.5892°
argument of perigee: 354.3680°
revolutions per day: 14.36261305
mean anomaly at epoch: 180.2635°
orbit number at epoch: 78031

The dashed part of the orbit path shows where the satellite is in the earth's shadow,  

DLR